Time,TemperatureF,DewpointF,PressureIn,WindDirection,WindDirectionDegrees,WindSpeedMPH,WindSpeedGustMPH,Humidity,HourlyPrecipIn,Conditions,Clouds,dailyrainin,SoftwareType,DateUTC
2013-02-20 00:01:00,8.0,5.0,29.89,NNW,332,7.0,9.0,87,1.63,,,-99.99,,2013-02-20 06:01:00,
2013-02-20 00:11:00,9.0,6.0,29.89,North,359,6.0,9.0,87,1.63,,,-99.99,,2013-02-20 06:11:00,
2013-02-20 00:21:00,9.0,6.0,29.89,North,359,6.0,9.0,87,1.63,,,-99.99,,2013-02-20 06:21:00,
2013-02-20 00:31:00,8.0,5.0,29.89,North,357,6.0,9.0,88,1.63,,,-99.99,,2013-02-20 06:31:00,
2013-02-20 00:42:00,8.0,5.0,29.89,North,357,6.0,9.0,88,1.63,,,-99.99,,2013-02-20 06:42:00,
2013-02-20 00:51:00,8.0,5.0,29.90,North,352,5.0,7.0,87,1.63,,,-99.99,,2013-02-20 06:51:00,
2013-02-20 01:01:00,8.0,5.0,29.90,North,359,4.0,6.0,87,1.63,,,-99.99,,2013-02-20 07:01:00,
2013-02-20 01:11:00,8.0,5.0,29.90,North,359,4.0,6.0,87,1.63,,,-99.99,,2013-02-20 07:11:00,
2013-02-20 01:21:00,7.0,4.0,29.89,NE,55,4.0,6.0,88,1.63,,,-99.99,,2013-02-20 07:21:00,
2013-02-20 01:31:00,7.0,4.0,29.90,ENE,69,3.0,5.0,89,1.63,,,-99.99,,2013-02-20 07:31:00,
2013-02-20 01:41:00,7.0,4.0,29.90,ENE,69,3.0,5.0,89,1.63,,,-99.99,,2013-02-20 07:41:00,
2013-02-20 01:52:00,7.0,4.0,29.90,NE,48,4.0,5.0,89,1.63,,,-99.99,,2013-02-20 07:52:00,
2013-02-20 02:05:00,7.0,4.0,29.91,NNW,339,5.0,7.0,89,1.63,,,-99.99,,2013-02-20 08:05:00,
2013-02-20 02:11:00,7.0,4.0,29.91,North,1,2.0,5.0,88,1.63,,,-99.99,,2013-02-20 08:11:00,
2013-02-20 02:21:00,7.0,4.0,29.91,North,1,2.0,5.0,88,1.63,,,-99.99,,2013-02-20 08:21:00,
2013-02-20 02:31:00,7.0,5.0,29.91,North,7,5.0,8.0,90,1.63,,,-99.99,,2013-02-20 08:31:00,
2013-02-20 02:41:00,7.0,5.0,29.91,North,7,5.0,8.0,90,1.63,,,-99.99,,2013-02-20 08:41:00,
2013-02-20 02:52:00,7.0,5.0,29.91,NNE,23,2.0,4.0,90,1.63,,,-99.99,,2013-02-20 08:52:00,
2013-02-20 03:01:00,6.0,3.0,29.89,NE,41,5.0,9.0,89,1.63,,,-99.99,,2013-02-20 09:01:00,
2013-02-20 03:11:00,6.0,3.0,29.89,NE,41,5.0,9.0,89,1.63,,,-99.99,,2013-02-20 09:11:00,
2013-02-20 03:21:00,6.0,3.0,29.88,NE,52,4.0,6.0,89,1.63,,,-99.99,,2013-02-20 09:21:00,
2013-02-20 03:31:00,6.0,3.0,29.89,ENE,63,4.0,7.0,89,1.63,,,-99.99,,2013-02-20 09:31:00,
2013-02-20 03:41:00,6.0,3.0,29.89,ENE,63,4.0,7.0,89,1.63,,,-99.99,,2013-02-20 09:41:00,
2013-02-20 03:52:00,6.0,3.0,29.89,NNE,24,5.0,8.0,89,1.63,,,-99.99,,2013-02-20 09:52:00,
2013-02-20 04:01:00,6.0,3.0,29.88,ENE,62,5.0,9.0,89,1.63,,,-99.99,,2013-02-20 10:01:00,
2013-02-20 04:12:00,6.0,3.0,29.88,ENE,62,5.0,9.0,89,1.63,,,-99.99,,2013-02-20 10:12:00,
2013-02-20 04:22:00,5.0,2.0,29.87,ENE,59,4.0,9.0,89,1.63,,,-99.99,,2013-02-20 10:22:00,
2013-02-20 04:31:00,5.0,2.0,29.87,NE,49,4.0,7.0,89,1.63,,,-99.99,,2013-02-20 10:31:00,
2013-02-20 04:41:00,5.0,2.0,29.87,NE,49,4.0,7.0,89,1.63,,,-99.99,,2013-02-20 10:41:00,
2013-02-20 04:52:00,5.0,2.0,29.86,NE,41,4.0,6.0,89,1.63,,,-99.99,,2013-02-20 10:52:00,
2013-02-20 05:02:00,5.0,2.0,29.85,NNE,27,3.0,5.0,89,1.63,,,-99.99,,2013-02-20 11:02:00,
2013-02-20 05:11:00,5.0,2.0,29.85,NE,53,5.0,8.0,89,1.63,,,-99.99,,2013-02-20 11:11:00,
2013-02-20 05:21:00,5.0,2.0,29.85,NE,53,5.0,8.0,89,1.63,,,-99.99,,2013-02-20 11:21:00,
2013-02-20 05:32:00,5.0,2.0,29.86,East,91,3.0,6.0,89,1.63,,,-99.99,,2013-02-20 11:32:00,
2013-02-20 05:41:00,5.0,2.0,29.86,East,91,3.0,6.0,89,1.63,,,-99.99,,2013-02-20 11:41:00,
2013-02-20 05:52:00,5.0,2.0,29.86,North,0,0.0,0.0,89,1.63,,,-99.99,,2013-02-20 11:52:00,
2013-02-20 06:01:00,5.0,2.0,29.86,North,0,0.0,0.0,89,1.63,,,-99.99,,2013-02-20 12:01:00,
2013-02-20 06:12:00,5.0,2.0,29.86,North,0,0.0,0.0,89,1.63,,,-99.99,,2013-02-20 12:12:00,
2013-02-20 06:21:00,5.0,2.0,29.85,North,0,0.0,0.0,89,1.63,,,-99.99,,2013-02-20 12:21:00,
2013-02-20 06:32:00,5.0,2.0,29.85,North,0,0.0,0.0,89,1.63,,,-99.99,,2013-02-20 12:32:00,
2013-02-20 06:42:00,5.0,2.0,29.85,North,0,0.0,0.0,89,1.63,,,-99.99,,2013-02-20 12:42:00,
2013-02-20 06:53:00,5.0,2.0,29.86,North,0,0.0,0.0,89,1.63,,,-99.99,,2013-02-20 12:53:00,
2013-02-20 07:01:00,5.0,2.0,29.86,North,0,0.0,0.0,89,1.63,,,-99.99,,2013-02-20 13:01:00,
2013-02-20 07:11:00,5.0,2.0,29.86,North,0,0.0,0.0,89,1.63,,,-99.99,,2013-02-20 13:11:00,
2013-02-20 07:22:00,5.0,2.0,29.87,North,0,0.0,0.0,89,1.63,,,-99.99,,2013-02-20 13:22:00,
2013-02-20 07:31:00,5.0,3.0,29.87,SE,136,3.0,6.0,90,1.63,,,-99.99,,2013-02-20 13:31:00,
2013-02-20 07:42:00,5.0,3.0,29.87,SE,136,3.0,6.0,90,1.63,,,-99.99,,2013-02-20 13:42:00,
2013-02-20 07:52:00,5.0,3.0,29.88,ESE,111,1.0,5.0,90,1.63,,,-99.99,,2013-02-20 13:52:00,
2013-02-20 08:01:00,6.0,4.0,29.88,ESE,110,3.0,6.0,90,1.63,,,-99.99,,2013-02-20 14:01:00,
2013-02-20 08:11:00,6.0,4.0,29.88,ESE,110,3.0,6.0,90,1.63,,,-99.99,,2013-02-20 14:11:00,
2013-02-20 08:21:00,6.0,3.0,29.89,SE,145,5.0,9.0,89,1.63,,,-99.99,,2013-02-20 14:21:00,
2013-02-20 08:32:00,6.0,3.0,29.89,ESE,117,5.0,11.0,89,1.63,,,-99.99,,2013-02-20 14:32:00,
2013-02-20 08:42:00,7.0,4.0,29.88,SE,141,5.0,11.0,89,1.63,,,-99.99,,2013-02-20 14:42:00,
2013-02-20 08:52:00,7.0,4.0,29.88,SE,141,5.0,11.0,89,1.63,,,-99.99,,2013-02-20 14:52:00,
2013-02-20 09:01:00,7.0,4.0,29.89,East,101,6.0,10.0,89,1.63,,,-99.99,,2013-02-20 15:01:00,
2013-02-20 09:11:00,8.0,5.0,29.89,SE,139,7.0,11.0,88,1.63,,,-99.99,,2013-02-20 15:11:00,
2013-02-20 09:22:00,8.0,5.0,29.89,SE,139,7.0,11.0,88,1.63,,,-99.99,,2013-02-20 15:22:00,
2013-02-20 09:32:00,9.0,6.0,29.89,ESE,108,4.0,7.0,88,1.63,,,-99.99,,2013-02-20 15:32:00,
2013-02-20 09:42:00,9.0,6.0,29.89,SE,141,4.0,8.0,87,1.63,,,-99.99,,2013-02-20 15:42:00,
2013-02-20 09:52:00,9.0,6.0,29.89,SE,141,4.0,8.0,87,1.63,,,-99.99,,2013-02-20 15:52:00,
2013-02-20 10:01:00,10.0,7.0,29.89,SE,135,6.0,10.0,87,1.63,,,-99.99,,2013-02-20 16:01:00,
2013-02-20 10:11:00,11.0,8.0,29.89,SE,138,5.0,9.0,86,1.63,,,-99.99,,2013-02-20 16:11:00,
2013-02-20 10:21:00,11.0,8.0,29.89,SE,138,5.0,9.0,86,1.63,,,-99.99,,2013-02-20 16:21:00,
2013-02-20 10:32:00,12.0,9.0,29.88,SE,129,5.0,8.0,86,1.63,,,-99.99,,2013-02-20 16:32:00,
2013-02-20 10:41:00,13.0,9.0,29.88,ESE,108,4.0,8.0,85,1.63,,,-99.99,,2013-02-20 16:41:00,
2013-02-20 10:52:00,13.0,9.0,29.88,ESE,108,4.0,8.0,85,1.63,,,-99.99,,2013-02-20 16:52:00,
2013-02-20 11:01:00,13.0,9.0,29.89,ESE,118,7.0,11.0,84,1.63,,,-99.99,,2013-02-20 17:01:00,
2013-02-20 11:11:00,15.0,11.0,29.87,SE,134,4.0,10.0,84,1.63,,,-99.99,,2013-02-20 17:11:00,
2013-02-20 11:21:00,15.0,11.0,29.87,SE,134,4.0,10.0,84,1.63,,,-99.99,,2013-02-20 17:21:00,
2013-02-20 11:32:00,15.0,11.0,29.88,East,101,5.0,9.0,82,1.63,,,-99.99,,2013-02-20 17:32:00,
2013-02-20 11:41:00,16.0,11.0,29.87,East,89,4.0,8.0,81,1.63,,,-99.99,,2013-02-20 17:41:00,
2013-02-20 11:52:00,16.0,11.0,29.87,East,89,4.0,8.0,81,1.63,,,-99.99,,2013-02-20 17:52:00,
2013-02-20 12:02:00,17.0,12.0,29.87,SE,124,5.0,10.0,80,1.63,,,-99.99,,2013-02-20 18:02:00,
2013-02-20 12:11:00,18.0,12.0,29.87,SSE,149,6.0,8.0,76,1.63,,,-99.99,,2013-02-20 18:11:00,
2013-02-20 12:21:00,18.0,12.0,29.87,SSE,149,6.0,8.0,76,1.63,,,-99.99,,2013-02-20 18:21:00,
2013-02-20 12:32:00,19.0,12.0,29.86,SE,134,8.0,11.0,75,1.63,,,-99.99,,2013-02-20 18:32:00,
2013-02-20 12:42:00,19.0,12.0,29.86,SE,134,8.0,11.0,75,1.63,,,-99.99,,2013-02-20 18:42:00,
2013-02-20 12:51:00,18.0,11.0,29.85,South,170,8.0,10.0,73,1.63,,,-99.99,,2013-02-20 18:51:00,
2013-02-20 13:01:00,19.0,12.0,29.83,South,177,7.0,10.0,75,1.63,,,-99.99,,2013-02-20 19:01:00,
2013-02-20 13:11:00,19.0,12.0,29.83,South,177,7.0,10.0,75,1.63,,,-99.99,,2013-02-20 19:11:00,
2013-02-20 13:21:00,19.0,12.0,29.82,SE,145,6.0,10.0,74,1.63,,,-99.99,,2013-02-20 19:21:00,
2013-02-20 13:31:00,20.0,13.0,29.80,SE,143,7.0,10.0,73,1.63,,,-99.99,,2013-02-20 19:31:00,
2013-02-20 13:41:00,20.0,13.0,29.80,SE,143,7.0,10.0,73,1.63,,,-99.99,,2013-02-20 19:41:00,
2013-02-20 13:52:00,21.0,13.0,29.78,ESE,118,7.0,11.0,72,1.63,,,-99.99,,2013-02-20 19:52:00,
2013-02-20 14:01:00,21.0,13.0,29.78,SE,131,7.0,12.0,72,1.63,,,-99.99,,2013-02-20 20:01:00,
2013-02-20 14:11:00,22.0,14.0,29.76,NE,56,6.0,10.0,71,1.63,,,-99.99,,2013-02-20 20:11:00,
2013-02-20 14:21:00,22.0,14.0,29.76,NE,56,6.0,10.0,71,1.63,,,-99.99,,2013-02-20 20:21:00,
2013-02-20 14:31:00,22.0,14.0,29.75,ESE,108,4.0,8.0,71,1.63,,,-99.99,,2013-02-20 20:31:00,
2013-02-20 14:41:00,23.0,15.0,29.75,East,79,6.0,12.0,70,1.63,,,-99.99,,2013-02-20 20:41:00,
2013-02-20 14:51:00,23.0,15.0,29.75,East,79,6.0,12.0,70,1.63,,,-99.99,,2013-02-20 20:51:00,
2013-02-20 15:01:00,23.0,14.0,29.75,SE,141,7.0,13.0,69,1.63,,,-99.99,,2013-02-20 21:01:00,
2013-02-20 15:11:00,23.0,14.0,29.74,ESE,114,6.0,12.0,69,1.63,,,-99.99,,2013-02-20 21:11:00,
2013-02-20 15:21:00,23.0,14.0,29.74,ESE,114,6.0,12.0,69,1.63,,,-99.99,,2013-02-20 21:21:00,
2013-02-20 15:31:00,23.0,14.0,29.74,SSE,159,6.0,11.0,69,1.63,,,-99.99,,2013-02-20 21:31:00,
2013-02-20 15:41:00,23.0,14.0,29.74,SSE,159,6.0,11.0,69,1.63,,,-99.99,,2013-02-20 21:41:00,
2013-02-20 15:52:00,23.0,14.0,29.74,ESE,104,8.0,13.0,69,1.63,,,-99.99,,2013-02-20 21:52:00,
2013-02-20 16:01:00,23.0,14.0,29.71,ESE,117,8.0,14.0,68,1.63,,,-99.99,,2013-02-20 22:01:00,
2013-02-20 16:11:00,23.0,14.0,29.74,ESE,120,7.0,13.0,69,1.63,,,-99.99,,2013-02-20 22:11:00,
2013-02-20 16:21:00,23.0,14.0,29.74,ESE,120,7.0,13.0,69,1.63,,,-99.99,,2013-02-20 22:21:00,
2013-02-20 16:31:00,23.0,14.0,29.73,SE,129,7.0,11.0,68,1.63,,,-99.99,,2013-02-20 22:31:00,
2013-02-20 16:42:00,23.0,14.0,29.73,SE,129,7.0,11.0,68,1.63,,,-99.99,,2013-02-20 22:42:00,
2013-02-20 16:52:00,24.0,15.0,29.73,SSE,152,7.0,10.0,69,1.63,,,-99.99,,2013-02-20 22:52:00,
2013-02-20 17:01:00,24.0,15.0,29.72,NE,45,5.0,9.0,68,1.63,,,-99.99,,2013-02-20 23:01:00,
2013-02-20 17:12:00,24.0,15.0,29.71,SE,134,9.0,14.0,68,1.63,,,-99.99,,2013-02-20 23:12:00,
2013-02-20 17:22:00,24.0,15.0,29.71,SE,134,9.0,14.0,68,1.63,,,-99.99,,2013-02-20 23:22:00,
2013-02-20 17:31:00,23.0,15.0,29.71,ESE,104,7.0,13.0,70,1.63,,,-99.99,,2013-02-20 23:31:00,
2013-02-20 17:42:00,23.0,15.0,29.71,ESE,104,7.0,13.0,70,1.63,,,-99.99,,2013-02-20 23:42:00,
2013-02-20 17:52:00,23.0,15.0,29.71,ESE,114,7.0,12.0,72,1.63,,,-99.99,,2013-02-20 23:52:00,
2013-02-20 18:02:00,23.0,15.0,29.70,SE,135,10.0,13.0,72,1.63,,,-99.99,,2013-02-21 00:02:00,
2013-02-20 18:11:00,23.0,15.0,29.70,SE,135,10.0,13.0,72,1.63,,,-99.99,,2013-02-21 00:11:00,
2013-02-20 18:21:00,23.0,15.0,29.70,SE,124,7.0,10.0,72,1.63,,,-99.99,,2013-02-21 00:21:00,
2013-02-20 18:32:00,23.0,15.0,29.68,SE,141,7.0,10.0,71,1.63,,,-99.99,,2013-02-21 00:32:00,
2013-02-20 18:42:00,23.0,15.0,29.70,SE,136,5.0,9.0,71,1.63,,,-99.99,,2013-02-21 00:42:00,
2013-02-20 18:52:00,23.0,15.0,29.70,SE,136,5.0,9.0,71,1.63,,,-99.99,,2013-02-21 00:52:00,
2013-02-20 19:01:00,23.0,15.0,29.70,ENE,70,4.0,6.0,71,1.63,,,-99.99,,2013-02-21 01:01:00,
2013-02-20 19:11:00,23.0,15.0,29.70,ENE,70,4.0,6.0,71,1.63,,,-99.99,,2013-02-21 01:11:00,
2013-02-20 19:21:00,23.0,15.0,29.70,SSE,148,3.0,8.0,71,1.63,,,-99.99,,2013-02-21 01:21:00,
2013-02-20 19:32:00,24.0,16.0,29.69,SSE,150,4.0,8.0,71,1.63,,,-99.99,,2013-02-21 01:32:00,
2013-02-20 19:41:00,24.0,16.0,29.69,SSE,150,4.0,8.0,71,1.63,,,-99.99,,2013-02-21 01:41:00,
2013-02-20 19:52:00,24.0,16.0,29.69,East,96,3.0,7.0,71,1.63,,,-99.99,,2013-02-21 01:52:00,
2013-02-20 20:01:00,24.0,16.0,29.68,East,89,5.0,9.0,70,1.63,,,-99.99,,2013-02-21 02:01:00,
2013-02-20 20:11:00,24.0,16.0,29.68,East,89,5.0,9.0,70,1.63,,,-99.99,,2013-02-21 02:11:00,
2013-02-20 20:21:00,24.0,16.0,29.69,SE,138,3.0,9.0,70,1.63,,,-99.99,,2013-02-21 02:21:00,
2013-02-20 20:32:00,24.0,16.0,29.68,East,83,4.0,7.0,70,1.63,,,-99.99,,2013-02-21 02:32:00,
2013-02-20 20:42:00,24.0,16.0,29.68,East,83,4.0,7.0,70,1.63,,,-99.99,,2013-02-21 02:42:00,
2013-02-20 20:52:00,24.0,16.0,29.68,East,83,4.0,7.0,70,1.63,,,-99.99,,2013-02-21 02:52:00,
2013-02-20 21:01:00,24.0,16.0,29.67,SE,136,5.0,9.0,70,1.63,,,-99.99,,2013-02-21 03:01:00,
2013-02-20 21:12:00,24.0,15.0,29.69,SE,127,5.0,9.0,69,1.63,,,-99.99,,2013-02-21 03:12:00,
2013-02-20 21:21:00,24.0,15.0,29.69,SE,127,5.0,9.0,69,1.63,,,-99.99,,2013-02-21 03:21:00,
2013-02-20 21:31:00,24.0,15.0,29.69,SE,124,6.0,9.0,69,1.63,,,-99.99,,2013-02-21 03:31:00,
2013-02-20 21:41:00,24.0,15.0,29.69,SE,124,6.0,9.0,69,1.63,,,-99.99,,2013-02-21 03:41:00,
2013-02-20 21:52:00,24.0,15.0,29.70,SSE,155,7.0,12.0,69,1.63,,,-99.99,,2013-02-21 03:52:00,
2013-02-20 22:01:00,24.0,15.0,29.70,SE,134,7.0,10.0,69,1.63,,,-99.99,,2013-02-21 04:01:00,
2013-02-20 22:11:00,24.0,15.0,29.70,SE,134,7.0,10.0,69,1.63,,,-99.99,,2013-02-21 04:11:00,
2013-02-20 22:21:00,24.0,15.0,29.71,SE,136,7.0,11.0,69,1.63,,,-99.99,,2013-02-21 04:21:00,
2013-02-20 22:32:00,24.0,15.0,29.71,SE,139,8.0,12.0,69,1.63,,,-99.99,,2013-02-21 04:32:00,
2013-02-20 22:42:00,24.0,15.0,29.71,SE,139,8.0,12.0,69,1.63,,,-99.99,,2013-02-21 04:42:00,
2013-02-20 22:52:00,24.0,15.0,29.72,NNE,20,5.0,9.0,69,1.63,,,-99.99,,2013-02-21 04:52:00,
2013-02-20 23:02:00,24.0,15.0,29.72,ESE,114,6.0,11.0,69,1.63,,,-99.99,,2013-02-21 05:02:00,
2013-02-20 23:12:00,24.0,15.0,29.72,ESE,114,6.0,11.0,69,1.63,,,-99.99,,2013-02-21 05:12:00,
2013-02-20 23:22:00,24.0,16.0,29.71,East,94,6.0,8.0,70,1.63,,,-99.99,,2013-02-21 05:22:00,
2013-02-20 23:33:00,24.0,16.0,29.72,SE,135,8.0,12.0,70,1.63,,,-99.99,,2013-02-21 05:33:00,
2013-02-20 23:43:00,24.0,16.0,29.72,SE,135,8.0,12.0,70,1.63,,,-99.99,,2013-02-21 05:43:00,
2013-02-20 23:59:00,24.0,16.0,29.71,East,96,6.0,11.0,70,1.63,,,-99.99,,2013-02-21 05:59:00,